Theta_e
307 306 305 307 309 311 314 314 314 313 312 311 312 313 313 312 312 312 314 316 317 318 319 319 319 316 322 329 328 330 330 329 327 327 325 324 324 323 329 327 328 327 325 328
306 306 306 307 308 311 312 314 313 311 310 315 313 314 311 311 312 314 314 315 317 318 319 320 318 317 320 328 328 330 330 329 327 325 324 322 323 323 325 324 327 328 326 325
308 308 307 307 307 308 308 310 309 310 313 312 315 312 312 312 312 314 315 316 317 318 319 320 319 318 322 327 327 329 329 328 327 323 322 323 323 325 325 325 326 327 327 325
308 308 308 306 307 307 307 307 310 315 314 313 316 315 313 312 312 312 314 317 318 319 319 320 319 319 323 325 328 329 329 328 326 323 321 320 322 323 322 324 325 326 324 327
312 313 310 309 308 308 311 314 315 317 316 317 318 314 310 311 311 311 311 316 318 319 320 320 320 319 321 328 328 329 328 327 326 323 320 321 322 323 322 324 323 325 324 326
310 307 310 312 315 313 316 314 316 316 316 315 314 314 311 309 311 316 318 316 317 318 320 320 320 320 323 327 329 329 328 327 326 323 319 320 322 323 322 322 323 324 325 325
306 306 311 314 316 315 312 312 310 309 316 314 313 315 313 312 314 320 318 316 317 319 319 319 319 320 322 326 329 329 328 327 327 324 319 318 322 323 323 324 322 324 323 325
305 305 310 313 313 315 314 313 313 315 320 319 315 319 315 318 320 320 320 318 317 318 317 318 319 320 321 325 328 328 328 327 327 325 319 317 321 322 323 323 324 323 322 323
305 307 309 313 312 312 315 314 312 314 314 314 313 317 316 320 319 318 318 318 318 319 319 316 318 320 321 325 326 327 328 327 327 326 320 317 321 322 323 324 324 323 322 322
309 310 311 311 311 312 313 313 313 316 320 320 317 318 320 320 321 319 318 318 320 321 322 318 317 320 322 325 326 328 328 327 327 326 321 317 321 322 322 323 323 323 322 322
312 312 313 310 312 314 314 315 314 315 315 319 319 318 320 319 320 319 318 318 319 319 325 322 322 323 324 325 325 327 327 327 327 326 322 318 320 321 322 321 322 323 322 322
309 312 314 314 313 311 311 314 314 313 315 319 320 317 319 319 319 318 316 317 318 316 320 324 324 324 325 325 325 327 326 326 327 327 324 321 319 319 321 320 321 321 321 322
307 311 310 316 315 312 315 315 316 316 315 318 318 316 317 318 318 317 316 318 315 314 314 318 322 323 324 325 325 326 326 326 327 327 326 324 322 320 320 321 320 320 320 320
308 309 308 310 309 313 315 315 315 315 316 318 318 317 317 319 318 317 318 318 313 310 310 311 314 315 319 322 323 324 324 325 326 326 326 325 325 323 322 321 320 321 320 320
307 307 308 309 309 311 311 311 312 315 315 316 314 316 316 316 318 318 317 314 311 309 307 307 308 312 314 317 320 322 323 325 325 325 325 325 325 325 325 324 323 322 322 321
307 309 308 309 308 307 308 308 308 309 311 314 315 316 316 316 317 318 318 314 311 308 306 307 308 310 311 314 314 318 320 322 324 324 323 323 323 323 323 324 324 324 324 324
307 307 307 308 308 307 307 307 306 305 314 315 316 316 317 316 317 317 314 311 308 307 304 305 307 309 311 312 310 313 314 320 320 321 321 322 322 323 323 323 322 322 321 323
307 307 306 308 307 306 306 304 305 309 310 314 314 313 317 312 309 309 310 307 303 302 304 307 307 307 309 308 305 306 309 311 312 315 316 318 320 321 321 321 321 321 322 322
304 305 305 306 308 305 305 307 310 309 308 310 312 313 315 309 307 304 302 305 304 302 302 303 307 307 307 308 307 308 309 308 309 310 310 310 310 310 312 314 317 319 320 321
303 303 304 304 307 304 304 307 309 309 305 309 310 313 313 313 314 305 301 301 304 302 301 302 303 303 306 305 304 304 306 306 307 307 306 306 307 308 309 309 310 310 311 313
305 304 307 306 306 306 305 309 309 308 307 307 306 310 310 306 305 299 297 298 301 299 301 299 300 302 301 301 301 302 301 303 302 303 304 305 305 306 306 306 306 307 308 308
305 305 304 306 307 306 307 309 308 308 306 306 304 302 300 298 296 296 296 297 298 298 298 299 299 299 299 300 301 301 300 298 299 300 301 302 303 303 303 303 304 304 305 305
301 305 308 306 306 306 304 303 303 303 302 303 302 300 300 297 296 297 298 295 294 296 295 295 295 295 296 297 299 298 297 297 298 299 300 301 301 300 299 300 301 301 301 301
301 302 305 305 303 304 302 300 298 299 297 299 300 299 297 295 293 292 292 291 293 292 292 293 293 293 293 294 294 295 295 295 295 297 298 298 298 297 296 297 296 297 297 296
301 302 301 305 302 300 298 297 296 295 296 298 297 296 295 295 292 291 289 289 289 290 291 290 289 289 290 291 292 292 293 293 293 294 294 294 294 293 293 293 292 292 290 290
298 298 298 302 297 298 295 294 294 293 292 293 295 295 294 293 291 290 290 288 289 290 288 287 287 286 286 288 289 290 290 291 291 291 291 290 289 289 289 288 288 287 287 287
Wind_Speed
9 4 8 8 10 5 2 3 4 3 6 4 9 16 6 12 11 11 20 29 31 33 30 26 21 26 38 39 35 33 29 25 22 21 20 19 18 20 21 18 23 21 21 26
3 12 8 8 6 5 5 5 5 5 5 3 8 22 9 9 10 17 21 26 28 31 29 25 21 25 34 41 38 35 31 26 22 21 20 17 17 17 15 15 20 25 28 25
7 3 9 12 6 7 5 5 4 5 4 4 6 25 11 5 10 20 21 27 28 32 27 23 22 26 37 43 41 37 32 27 23 19 19 17 18 16 16 18 18 21 33 28
4 5 4 5 6 7 6 7 6 3 2 4 4 12 15 15 21 9 19 26 32 35 30 23 20 27 41 44 42 37 32 27 24 21 20 19 21 24 19 19 21 21 23 31
6 3 5 4 6 8 5 5 6 3 3 2 2 4 5 10 20 22 16 27 34 34 29 25 22 25 38 42 44 39 32 27 24 22 20 19 18 20 20 19 20 18 19 24
7 1 4 4 4 4 9 5 4 3 2 2 6 6 8 4 3 17 20 27 29 34 28 24 24 31 39 43 41 39 34 30 25 23 22 22 19 21 20 20 22 22 22 31
2 2 2 5 7 4 3 5 3 5 2 4 5 6 17 17 17 13 18 23 25 24 28 27 27 32 37 46 45 41 36 33 26 23 23 22 21 21 21 21 23 23 27 29
6 2 8 4 4 6 2 4 4 4 3 3 4 6 6 2 8 20 26 26 26 17 20 23 28 30 35 46 48 43 38 35 28 24 23 23 22 23 24 22 23 23 27 29
5 1 2 3 4 5 2 3 2 3 3 1 4 7 6 11 17 19 26 33 31 30 18 23 28 32 36 45 49 46 41 37 29 24 24 24 22 23 24 23 21 18 22 26
4 5 4 2 6 9 3 7 4 2 3 4 5 5 3 12 15 18 22 28 34 35 17 18 30 31 36 40 42 44 43 36 28 23 22 22 21 22 22 20 20 19 18 21
2 3 1 4 2 6 2 3 5 3 2 3 3 4 2 6 8 12 18 31 28 31 12 12 17 21 27 32 33 39 39 34 27 21 19 18 19 20 22 20 20 20 20 20
3 3 3 4 4 4 4 4 4 3 3 4 4 6 3 6 6 8 20 30 23 24 27 18 12 13 18 24 28 30 31 29 23 17 16 17 17 17 21 22 22 21 20 20
2 3 3 3 3 7 6 2 4 3 1 4 3 5 1 6 3 5 17 30 21 21 30 32 28 22 17 17 20 20 20 22 18 14 14 15 16 16 18 19 22 23 23 23
6 4 5 3 3 1 2 3 2 4 3 4 7 10 6 8 5 5 9 22 21 23 33 30 31 32 27 23 20 19 18 17 15 14 15 16 15 14 14 17 17 20 24 25
4 4 4 4 2 2 2 5 8 8 10 8 8 12 15 17 8 2 12 14 23 29 31 30 32 31 27 26 19 13 10 13 13 9 9 10 10 13 14 17 20 19 18 21
5 2 2 1 3 4 3 10 6 9 11 11 14 17 6 16 11 8 9 13 18 18 21 27 30 31 29 28 22 19 16 13 11 15 14 14 14 11 13 16 19 20 20 20
2 3 2 2 1 4 4 3 5 7 5 4 6 4 2 12 9 9 19 17 15 18 20 25 28 29 31 29 21 18 15 16 10 11 9 10 10 13 15 18 20 22 26 23
3 3 2 1 3 2 4 7 3 5 5 8 6 4 7 9 16 26 18 21 15 15 17 20 21 22 24 18 13 15 19 17 13 13 9 6 4 6 8 11 12 15 19 21
3 3 2 1 1 5 11 2 3 3 11 6 6 1 16 16 17 16 16 16 16 15 16 17 15 15 13 10 13 11 15 13 13 14 12 11 9 6 3 3 9 12 14 16
6 4 2 0 1 2 5 2 8 3 8 11 12 9 14 15 2 2 9 12 15 15 14 15 14 13 9 12 10 11 11 11 14 13 13 12 10 9 7 5 4 4 4 5
3 2 3 3 4 5 5 12 11 3 4 11 15 12 10 6 10 12 11 14 11 11 11 11 10 10 11 9 9 11 11 12 12 11 11 10 10 10 10 9 7 6 6 5
3 3 3 2 3 7 14 4 3 3 11 13 16 19 24 22 20 17 13 14 12 12 12 11 11 11 10 9 9 10 11 12 10 10 11 13 13 11 8 6 6 5 5 5
3 1 1 4 3 7 11 13 14 12 15 16 19 16 19 17 15 14 12 10 12 12 12 11 11 10 11 11 10 10 10 10 10 9 10 12 16 16 12 10 9 7 8 8
4 6 2 2 8 12 16 14 14 14 15 15 16 14 14 15 12 11 11 10 10 11 12 11 10 11 12 12 11 10 8 8 8 8 8 8 9 12 12 12 12 12 13 13
4 8 6 2 4 7 18 17 11 13 14 16 15 13 12 9 10 8 10 10 10 11 11 11 12 13 14 14 13 11 9 8 6 5 6 7 8 11 13 16 19 19 19 18
4 3 2 2 9 4 8 12 11 15 17 14 11 11 10 8 8 7 9 8 9 11 11 11 12 12 12 13 13 13 12 9 6 7 9 9 9 12 13 15 17 18 19 20
Wind_Direction
181 177 203 176 196 192 196 223 229 259 270 298 266 276 269 284 277 259 268 283 285 286 287 295 276 246 233 225 225 221 219 220 223 227 224 226 223 216 216 227 231 211 199 212
152 233 202 198 179 185 212 239 256 267 252 271 288 283 266 234 258 248 257 268 274 279 284 291 282 242 224 219 220 218 218 221 225 231 231 229 220 205 206 207 206 219 206 197
194 231 179 180 174 169 195 204 207 244 317 285 316 287 273 237 250 281 263 261 263 269 274 277 269 235 215 215 217 217 218 220 223 230 225 213 210 203 207 201 200 197 209 203
219 244 160 159 192 161 192 199 189 155 51 266 11 291 300 310 297 280 266 257 256 260 262 261 252 225 216 214 213 215 217 220 219 225 225 219 219 204 203 195 198 204 220 209
228 180 173 169 193 160 190 152 145 145 143 28 45 311 79 332 295 296 278 262 265 264 253 245 245 231 223 215 212 211 213 217 219 223 225 220 218 218 220 201 201 205 206 224
190 185 171 166 54 136 141 111 68 53 77 333 205 181 314 223 261 327 305 283 266 265 251 236 245 225 218 216 215 209 210 214 220 221 222 220 223 216 217 206 203 200 202 211
132 196 146 120 87 33 109 87 7 5 20 251 313 226 257 285 312 329 332 325 289 278 256 233 221 216 217 215 214 209 209 213 217 219 223 219 219 215 223 211 208 198 202 207
157 213 161 178 164 155 83 134 144 194 216 241 324 242 250 22 8 354 349 342 339 333 266 235 221 219 217 216 214 208 208 213 214 218 223 217 215 215 217 219 219 213 209 206
140 217 79 93 132 141 180 87 125 81 228 25 236 281 300 12 8 354 347 344 343 333 305 236 225 220 220 217 215 206 208 212 215 216 221 216 214 212 219 229 218 218 218 213
186 99 37 123 85 35 126 146 88 85 261 270 258 256 290 2 354 338 347 344 342 340 311 224 217 217 218 217 213 203 209 210 212 216 220 213 211 213 221 228 227 227 222 220
79 80 19 128 140 154 117 118 71 118 195 268 304 285 232 296 342 346 338 336 347 346 5 145 172 198 206 205 204 202 205 206 210 216 219 216 215 214 217 227 233 236 234 231
4 102 92 73 336 146 96 109 119 131 223 236 297 274 27 271 273 345 332 332 354 8 36 82 118 168 184 192 195 197 202 204 208 216 221 220 223 218 215 222 230 240 243 241
335 26 105 120 26 24 58 88 107 91 265 237 269 270 198 279 332 343 350 333 10 23 48 67 87 106 136 166 183 191 204 208 214 220 226 228 229 228 224 224 227 229 235 241
72 55 77 104 162 115 77 330 228 179 244 289 260 286 304 285 304 344 28 336 13 29 47 51 71 78 97 117 137 161 184 199 209 219 228 233 238 242 240 244 243 236 237 239
69 76 54 40 359 177 228 250 247 217 233 257 276 294 301 297 279 212 71 35 30 25 41 47 59 77 82 90 97 122 167 194 189 196 226 244 244 251 250 250 247 256 260 252
359 107 67 347 335 13 296 269 267 259 264 243 269 281 292 316 271 147 104 95 67 42 40 52 62 71 72 74 71 82 94 121 160 188 195 213 218 225 241 251 259 258 258 264
67 119 94 224 351 321 289 224 277 270 232 205 234 250 305 24 2 148 86 78 59 56 47 50 54 59 64 63 58 71 86 88 122 134 159 198 216 224 233 244 249 249 249 257
146 103 101 221 298 227 240 329 232 305 276 228 266 352 97 102 71 51 92 94 67 58 58 54 52 56 62 76 64 74 78 84 90 96 102 122 178 214 228 241 246 244 249 254
161 100 57 101 256 296 312 95 48 319 308 7 311 236 144 117 71 50 55 87 88 70 63 64 63 53 58 53 55 52 68 67 73 72 67 67 70 75 81 237 241 248 250 251
74 81 109 175 39 277 262 209 343 284 295 356 327 254 160 150 127 85 76 73 75 68 63 62 59 58 51 36 40 45 58 57 57 57 51 46 39 29 22 16 7 344 311 280
52 61 219 239 268 287 327 324 329 237 291 6 26 56 80 72 89 108 86 75 76 58 60 52 44 38 38 41 30 35 37 43 39 40 39 34 28 23 16 9 359 359 345 337
187 147 205 192 245 257 352 352 339 98 65 61 61 79 86 90 90 93 74 68 60 45 37 32 26 28 29 24 21 26 23 30 23 19 21 23 22 17 8 3 2 2 358 358
20 71 313 205 257 89 43 83 59 76 76 66 76 78 95 91 91 86 75 56 45 43 32 23 17 16 17 21 20 24 27 18 13 3 14 20 18 11 10 22 32 38 43 41
359 30 292 317 16 38 52 56 71 80 76 76 80 85 90 94 86 81 80 62 48 44 39 30 22 24 27 31 30 27 22 11 3 1 15 28 36 31 34 45 52 56 57 56
3 314 335 247 24 330 33 32 54 72 74 71 70 72 72 73 82 76 73 67 61 55 44 44 43 40 40 39 41 40 38 29 18 25 45 51 44 51 52 59 59 61 66 63
359 357 342 356 338 52 39 42 51 63 60 53 48 49 55 53 60 56 62 51 56 62 63 63 64 60 55 55 56 55 53 46 45 64 69 69 75 74 69 73 78 79 80 77